FW1433 Weather Reports


time (UTC)temp
C
wind
direction
speed
KPH
gust
KPH
rain 1hr
cm
rain 24hr
cm
rain mn
cm
humidity
%
barometer
mb
20260507155622 17 261 19.3 37.0 0.00 0.00 0.00 34 1011.1
20260507155123 17 308 19.3 33.8 0.00 0.00 0.00 34 1011.1
20260507154622 17 328 17.7 33.8 0.00 0.00 0.00 34 1011.2
20260507154122 17 309 17.7 33.8 0.00 0.00 0.00 34 1011.1
20260507153852 17 313 19.3 33.8 0.00 0.03 0.00 34 1011.2
20260507153122 16 292 20.9 35.4 0.00 0.03 0.00 34 1011.2
20260507152621 16 278 20.9 38.6 0.00 0.03 0.00 35 1011.3
20260507152121 16 296 19.3 38.6 0.00 0.03 0.00 35 1011.2
20260507151621 16 282 16.1 37.0 0.00 0.03 0.00 34 1011.2
20260507151355 16 294 14.5 27.4 0.00 0.03 0.00 35 1011.3
20260507150621 16 306 14.5 29.0 0.00 0.03 0.00 35 1011.3
20260507150122 16 277 14.5 30.6 0.00 0.03 0.00 36 1011.3
20260507145620 16 282 14.5 30.6 0.00 0.03 0.00 36 1011.3
20260507145352 15 296 11.3 24.1 0.00 0.03 0.00 37 1011.2
20260507144851 15 277 11.3 24.1 0.00 0.03 0.00 38 1011.3
20260507144120 15 299 12.9 25.7 0.00 0.03 0.00 39 1011.3
20260507143620 15 292 12.9 25.7 0.00 0.05 0.00 38 1011.3
20260507143117 14 302 11.3 25.7 0.00 0.05 0.00 41 1011.3
20260507142849 13 280 9.7 25.7 0.00 0.05 0.00 40 1011.3
20260507142117 13 298 8.0 24.1 0.00 0.05 0.00 41 1011.2
20260507141617 13 319 8.0 20.9 0.00 0.05 0.00 42 1011.2
20260507141118 13 314 9.7 22.5 0.00 0.05 0.00 41 1011.0
20260507140617 12 13 11.3 24.1 0.00 0.05 0.00 41 1010.9
20260507140118 12 313 9.7 24.1 0.00 0.05 0.00 41 1010.9
20260507135617 12 267 9.7 24.1 0.00 0.05 0.00 42 1010.8
20260507135117 12 291 11.3 32.2 0.00 0.05 0.00 43 1010.8
20260507134616 11 286 11.3 32.2 0.00 0.05 0.00 43 1010.8
20260507134115 11 284 8.0 20.9 0.00 0.05 0.00 45 1010.9
20260507133614 11 282 8.0 20.9 0.00 0.05 0.00 45 1010.8
20260507133116 11 280 6.4 20.9 0.00 0.05 0.00 45 1010.8
20260507132618 11 313 6.4 17.7 0.00 0.05 0.00 45 1010.8
20260507132115 11 293 4.8 17.7 0.00 0.05 0.00 45 1010.7
20260507131848 11 261 4.8 14.5 0.00 0.05 0.00 47 1010.8
20260507131116 11 301 6.4 19.3 0.00 0.05 0.00 46 1010.8
20260507130615 11 269 6.4 19.3 0.00 0.05 0.00 45 1010.7
20260507130115 11 302 9.7 25.7 0.00 0.05 0.00 44 1010.7
20260507125615 11 294 12.9 30.6 0.00 0.05 0.00 45 1010.7
20260507125348 10 317 12.9 30.6 0.00 0.05 0.00 45 1010.5
20260507124615 10 315 11.3 24.1 0.00 0.05 0.00 46 1010.4
20260507124115 10 321 9.7 24.1 0.00 0.05 0.00 46 1010.3
20260507123613 10 312 9.7 22.5 0.00 0.05 0.00 47 1010.3
20260507123344 9 320 6.4 19.3 0.00 0.05 0.00 48 1010.3
20260507122615 9 315 6.4 19.3 0.00 0.05 0.00 49 1010.3
20260507122113 9 313 6.4 19.3 0.00 0.05 0.00 49 1010.2
20260507121614 8 321 4.8 19.3 0.00 0.05 0.00 50 1010.2
20260507121114 8 298 3.2 19.3 0.00 0.05 0.00 50 1010.2
20260507120613 8 286 3.2 16.1 0.00 0.05 0.00 51 1010.4
20260507120113 8 261 3.2 12.9 0.00 0.05 0.00 49 1010.3
20260507115613 8 304 4.8 14.5 0.00 0.05 0.00 49 1010.2
20260507115113 9 313 6.4 16.1 0.00 0.05 0.00 48 1010.2
20260507114612 9 281 8.0 20.9 0.00 0.05 0.00 47 1010.2
20260507114112 9 256 8.0 20.9 0.00 0.05 0.00 47 1010.2
20260507113614 9 308 8.0 16.1 0.00 0.05 0.00 47 1010.2
20260507113112 9 311 8.0 16.1 0.00 0.05 0.00 47 1010.2
20260507112612 9 262 6.4 16.1 0.00 0.05 0.00 47 1010.1
20260507112113 9 270 8.0 19.3 0.00 0.05 0.00 47 1010.2
20260507111613 9 311 11.3 25.7 0.00 0.05 0.00 47 1010.2
20260507111344 9 252 9.7 25.7 0.00 0.05 0.00 47 1010.2
20260507110614 8 284 6.4 22.5 0.00 0.05 0.00 48 1010.3
20260507110111 9 288 6.4 17.7 0.00 0.05 0.00 47 1010.1
20260507105607 9 327 6.4 16.1 0.00 0.05 0.00 46 1010.1
20260507105107 10 309 8.0 25.7 0.00 0.05 0.00 46 1010.2
20260507104607 10 259 8.0 25.7 0.00 0.05 0.00 44 1010.1
20260507104337 10 317 9.7 27.4 0.00 0.05 0.00 44 1010.0
20260507103607 10 355 16.1 30.6 0.00 0.05 0.00 43 1010.1
20260507103104 10 283 19.3 37.0 0.00 0.05 0.00 43 1010.0
20260507102605 10 313 19.3 37.0 0.00 0.05 0.00 43 1010.0
20260507102105 10 304 17.7 35.4 0.00 0.05 0.00 44 1009.9
20260507101607 10 292 17.7 35.4 0.00 0.05 0.00 44 1009.9
20260507101104 10 311 16.1 32.2 0.00 0.05 0.00 44 1009.9
20260507100603 10 301 16.1 32.2 0.00 0.05 0.00 44 1009.9
20260507100106 10 291 17.7 29.0 0.00 0.05 0.00 44 1009.9
20260507100101 10 297 16.1 27.4 0.00 0.05 0.00 44 1009.7
20260507095101 9 318 17.7 32.2 0.00 0.05 0.00 45 1009.9
20260507094831 9 269 17.7 32.2 0.00 0.05 0.00 45 1010.0
20260507094101 9 281 16.1 27.4 0.00 0.05 0.00 46 1010.0
20260507093600 9 5 16.1 38.6 0.00 0.05 0.00 46 1010.1
20260507093102 9 257 14.5 38.6 0.00 0.05 0.00 47 1010.0
20260507092558 8 337 14.5 32.2 0.00 0.05 0.00 47 1010.1
20260507092329 8 250 14.5 32.2 0.00 0.05 0.00 48 1010.0
20260507091557 8 288 12.9 30.6 0.00 0.05 0.00 49 1010.1
20260507091057 7 355 9.7 20.9 0.00 0.05 0.00 50 1010.1
20260507090557 7 287 9.7 19.3 0.00 0.05 0.00 51 1010.3
20260507090331 7 302 6.4 17.7 0.00 0.05 0.00 52 1010.1
20260507085826 7 315 4.8 24.1 0.00 0.05 0.00 52 1010.2
20260507085056 7 244 6.4 24.1 0.00 0.05 0.00 52 1010.3
20260507084551 7 288 8.0 20.9 0.00 0.05 0.00 52 1010.2
20260507084050 6 267 8.0 20.9 0.00 0.05 0.00 53 1010.2
20260507083550 6 257 6.4 20.9 0.00 0.05 0.00 54 1010.2
20260507083051 6 285 6.4 19.3 0.00 0.05 0.00 54 1010.3
20260507082550 6 330 3.2 12.9 0.00 0.05 0.00 56 1010.3
20260507082051 6 318 3.2 12.9 0.00 0.05 0.00 56 1010.3
20260507081548 6 297 3.2 12.9 0.00 0.05 0.00 55 1010.4
20260507081048 6 267 4.8 17.7 0.00 0.05 0.00 54 1010.5
20260507080546 6 88 6.4 17.7 0.00 0.05 0.00 54 1010.5
20260507080045 6 275 4.8 16.1 0.00 0.05 0.00 55 1010.7
20260507075548 6 329 3.2 8.0 0.00 0.05 0.00 54 1010.8
20260507075046 6 297 3.2 8.0 0.00 0.05 0.00 54 1010.7
20260507074545 6 222 4.8 11.3 0.00 0.05 0.00 54 1010.9
20260507074045 6 314 4.8 11.3 0.00 0.05 0.00 54 1011.1
20260507073549 6 321 6.4 16.1 0.00 0.05 0.00 54 1011.1
20260507073544 6 230 3.2 9.7 0.00 0.05 0.00 55 1011.1
20260507072544 6 293 6.4 16.1 0.00 0.05 0.00 54 1011.1
20260507072043 6 287 6.4 19.3 0.00 0.05 0.00 54 1011.2
20260507071542 7 252 6.4 19.3 0.00 0.05 0.00 53 1011.3
20260507071040 7 316 4.8 14.5 0.00 0.05 0.00 52 1011.5
20260507070541 7 234 8.0 20.9 0.00 0.05 0.00 51 1011.6
20260507070038 7 300 9.7 20.9 0.00 0.05 0.00 51 1011.5
20260507065539 7 306 8.0 19.3 0.00 0.05 0.00 52 1011.6
20260507065309 6 309 8.0 19.3 0.00 0.05 0.00 53 1011.6
20260507064538 6 252 9.7 19.3 0.00 0.05 0.00 54 1011.7
20260507064039 6 271 11.3 24.1 0.00 0.05 0.00 55 1011.6
20260507063540 6 303 12.9 24.1 0.00 0.05 0.00 55 1011.8
20260507063050 6 298 8.0 20.9 0.00 0.05 0.00 56 1011.7
20260507063042 6 313 8.0 22.5 0.00 0.05 0.00 55 1011.7
20260507061534 6 307 11.3 27.4 0.00 0.05 0.00 57 1011.9
20260507061034 6 269 11.3 27.4 0.00 0.05 0.00 57 1011.9
20260507060534 6 315 9.7 29.0 0.00 0.05 0.00 58 1011.8
20260507060033 6 267 11.3 29.0 0.00 0.05 0.00 58 1011.8
20260507055533 6 302 12.9 22.5 0.00 0.05 0.05 58 1011.8
20260507055032 6 273 11.3 22.5 0.00 0.05 0.05 58 1011.9
20260507054530 6 227 11.3 30.6 0.00 0.05 0.05 58 1011.9
20260507054304 6 303 11.3 30.6 0.00 0.05 0.05 57 1011.9
20260507053530 6 284 9.7 29.0 0.00 0.05 0.05 58 1011.8
20260507053259 6 305 9.7 20.9 0.00 0.05 0.05 58 1011.9
20260507052801 6 225 11.3 27.4 0.00 0.05 0.05 59 1012.0
20260507052028 6 248 12.9 27.4 0.00 0.05 0.05 59 1012.1
20260507051529 5 248 12.9 25.7 0.00 0.05 0.05 60 1012.0
20260507051029 5 252 12.9 25.7 0.00 0.05 0.05 60 1012.0
20260507050531 5 294 12.9 24.1 0.00 0.05 0.05 60 1012.1
20260507050304 5 281 12.9 24.1 0.00 0.05 0.05 60 1012.1
20260507045529 5 292 11.3 24.1 0.00 0.05 0.05 60 1012.1
20260507045030 5 202 9.7 19.3 0.00 0.05 0.05 60 1012.1
20260507044530 5 334 8.0 14.5 0.00 0.05 0.05 60 1012.2
20260507044031 6 245 6.4 14.5 0.00 0.05 0.05 60 1012.2
20260507043530 6 313 6.4 14.5 0.00 0.05 0.05 59 1012.2
20260507043029 6 298 8.0 17.7 0.00 0.05 0.05 59 1012.2
20260507042527 6 256 8.0 19.3 0.00 0.05 0.05 59 1012.2
20260507042029 6 294 11.3 25.7 0.00 0.05 0.05 58 1012.2
20260507041528 6 248 12.9 25.7 0.00 0.05 0.05 59 1012.2
20260507041028 6 273 11.3 24.1 0.00 0.05 0.05 59 1012.2
20260507040528 6 298 9.7 24.1 0.00 0.05 0.05 58 1012.4
20260507040027 6 269 11.3 19.3 0.00 0.05 0.05 58 1012.2
20260507035528 6 306 9.7 19.3 0.00 0.05 0.05 59 1012.4
20260507035027 6 294 8.0 19.3 0.00 0.05 0.05 59 1012.4
20260507034528 6 296 4.8 12.9 0.00 0.08 0.05 60 1012.4
20260507034024 6 318 4.8 14.5 0.00 0.08 0.05 60 1012.5
20260507033524 6 34 4.8 14.5 0.00 0.08 0.05 60 1012.6
20260507033026 6 309 4.8 12.9 0.00 0.08 0.05 59 1012.5
20260507032800 6 53 4.8 14.5 0.00 0.08 0.05 58 1012.7
20260507032023 6 311 6.4 14.5 0.00 0.08 0.05 58 1012.8
20260507031523 6 289 4.8 14.5 0.00 0.08 0.05 58 1012.9
20260507031022 6 19 4.8 14.5 0.00 0.08 0.05 57 1012.9
20260507030754 6 348 3.2 14.5 0.00 0.08 0.05 57 1012.9
20260507030022 6 36 3.2 14.5 0.00 0.08 0.05 56 1013.0
20260507025754 6 0 4.8 14.5 0.00 0.08 0.05 56 1012.8
20260507025022 6 40 6.4 16.1 0.00 0.08 0.05 55 1012.8
20260507024523 6 115 4.8 16.1 0.00 0.08 0.05 55 1012.9
20260507024022 7 290 3.2 8.0 0.00 0.08 0.05 54 1012.9
20260507023522 7 160 3.2 11.3 0.00 0.08 0.05 54 1012.9
20260507023255 7 26 4.8 11.3 0.00 0.08 0.05 53 1012.9
20260507022753 7 290 4.8 14.5 0.00 0.08 0.05 52 1012.9
20260507022019 7 5 6.4 20.9 0.00 0.08 0.05 51 1013.0
20260507021519 8 306 9.7 20.9 0.00 0.08 0.05 50 1013.0
20260507021018 8 277 11.3 24.1 0.00 0.08 0.05 49 1013.0
20260507020520 8 263 9.7 24.1 0.00 0.08 0.05 49 1013.0
20260507020252 8 304 8.0 20.9 0.00 0.08 0.05 48 1012.9
20260507015752 8 266 9.7 19.3 0.00 0.08 0.05 47 1013.0
20260507015018 9 222 9.7 20.9 0.00 0.10 0.05 46 1013.0
20260507014519 9 264 8.0 20.9 0.00 0.10 0.05 45 1013.0
20260507014248 10 227 6.4 16.1 0.00 0.10 0.05 42 1013.0
20260507013747 10 331 4.8 16.1 0.00 0.10 0.05 40 1013.0
20260507013017 10 248 6.4 16.1 0.00 0.10 0.05 40 1013.0
20260507012516 10 287 6.4 16.1 0.00 0.10 0.05 39 1013.0
20260507012015 11 224 6.4 12.9 0.00 0.10 0.05 38 1013.0
20260507011743 11 267 6.4 14.5 0.00 0.10 0.05 37 1013.2
20260507011243 11 286 6.4 14.5 0.00 0.10 0.05 36 1013.3
20260507010512 11 317 9.7 19.3 0.00 0.10 0.05 35 1013.3
20260507010012 12 287 9.7 22.5 0.00 0.13 0.05 35 1013.2
20260507005511 12 289 8.0 22.5 0.00 0.13 0.05 33 1013.2
20260507005011 12 282 4.8 17.7 0.00 0.13 0.05 35 1013.2
20260507004741 12 263 8.0 20.9 0.00 0.13 0.05 34 1013.2
20260507004012 12 241 9.7 20.9 0.00 0.13 0.05 33 1013.3
20260507003512 11 288 8.0 19.3 0.00 0.13 0.05 33 1013.3
20260507003012 12 256 6.4 14.5 0.00 0.13 0.05 35 1013.3
20260507002511 12 264 6.4 14.5 0.00 0.13 0.05 36 1013.4
20260507002240 12 251 8.0 20.9 0.00 0.15 0.05 36 1013.4
20260507001510 12 307 8.0 20.9 0.00 0.15 0.05 35 1013.4
20260507001009 12 253 8.0 22.5 0.00 0.15 0.05 34 1013.5
20260507000508 12 223 9.7 22.5 0.00 0.15 0.05 35 1013.4
20260507000008 12 242 9.7 29.0 0.00 0.18 0.05 34 1013.5
20260506235739 12 246 9.7 29.0 0.00 0.18 0.05 33 1013.5
20260506235010 12 296 9.7 20.9 0.00 0.18 0.05 34 1013.5
20260506234739 12 202 11.3 24.1 0.00 0.20 0.05 33 1013.6
20260506234239 12 302 9.7 24.1 0.00 0.20 0.05 33 1013.7
20260506233509 12 257 11.3 27.4 0.00 0.20 0.05 32 1013.7
20260506233008 12 248 12.9 27.4 0.00 0.20 0.05 33 1013.7
20260506232739 12 223 11.3 22.5 0.00 0.20 0.05 31 1013.8
20260506232007 11 310 11.3 25.7 0.00 0.20 0.05 32 1014.0
20260506231507 11 262 16.1 37.0 0.00 0.20 0.05 34 1013.8
20260506231006 11 232 16.1 37.0 0.00 0.20 0.05 32 1014.1
20260506230736 11 296 11.3 27.4 0.00 0.23 0.05 33 1014.0
20260506230004 11 300 9.7 22.5 0.00 0.23 0.05 32 1014.0
20260506225506 11 0 9.7 22.5 0.00 0.23 0.05 33 1014.0
20260506225004 11 311 9.7 24.1 0.00 0.23 0.05 33 1014.1
20260506224503 11 288 11.3 29.0 0.00 0.23 0.05 32 1014.2
20260506224002 11 223 8.0 29.0 0.00 0.23 0.05 31 1014.4
20260506223504 11 243 8.0 20.9 0.00 0.23 0.05 34 1014.2
20260506223234 11 336 9.7 20.9 0.00 0.23 0.05 35 1014.4
20260506222503 11 254 9.7 20.9 0.00 0.23 0.05 34 1014.5
20260506222003 11 288 12.9 24.1 0.00 0.23 0.05 37 1014.5
20260506221504 11 252 11.3 25.7 0.00 0.23 0.05 34 1014.5
20260506221234 11 257 9.7 25.7 0.00 0.23 0.05 36 1014.5
20260506220733 10 298 8.0 24.1 0.00 0.23 0.05 37 1014.5
20260506220003 10 304 11.3 27.4 0.00 0.23 0.05 35 1014.6
20260506215500 10 261 11.3 27.4 0.00 0.23 0.05 37 1014.8
20260506215001 10 262 9.7 24.1 0.00 0.23 0.05 36 1014.9
20260506214501 10 284 11.3 24.1 0.00 0.23 0.05 36 1015.0
20260506214000 10 254 9.7 24.1 0.00 0.23 0.05 36 1015.0
20260506213731 10 284 11.3 19.3 0.00 0.23 0.05 35 1015.1
20260506213231 10 306 12.9 20.9 0.00 0.23 0.05 34 1015.2
20260506212500 11 290 11.3 24.1 0.00 0.23 0.05 35 1015.3
20260506212000 11 285 9.7 24.1 0.00 0.23 0.05 36 1015.4
20260506211731 11 232 11.3 35.4 0.00 0.23 0.05 37 1015.6
20260506211000 10 317 11.3 35.4 0.00 0.23 0.05 36 1015.6
20260506210500 10 221 11.3 24.1 0.00 0.23 0.05 37 1015.6
20260506210000 10 298 9.7 22.5 0.00 0.23 0.05 36 1015.7
20260506205459 10 264 9.7 19.3 0.00 0.23 0.05 36 1015.8
20260506205000 10 286 9.7 19.3 0.00 0.23 0.05 36 1015.9
20260506204500 10 241 6.4 17.7 0.00 0.23 0.05 37 1015.9
20260506204002 10 280 9.7 30.6 0.00 0.23 0.05 38 1015.9
20260506203731 10 312 9.7 30.6 0.00 0.23 0.05 35 1016.0
20260506202959 9 294 8.0 22.5 0.00 0.23 0.05 41 1016.1
20260506202459 9 294 8.0 22.5 0.00 0.23 0.05 39 1016.2
20260506201959 9 298 9.7 22.5 0.00 0.23 0.05 38 1016.2
20260506201458 9 265 9.7 22.5 0.00 0.23 0.05 39 1016.5
20260506200955 9 270 8.0 20.9 0.00 0.23 0.05 42 1016.3
20260506200459 8 308 8.0 20.9 0.00 0.25 0.05 40 1016.6
20260506200000 8 231 8.0 20.9 0.00 0.25 0.05 40 1016.7
20260506195955 8 309 9.7 20.9 0.00 0.25 0.05 41 1016.6
20260506195228 8 331 8.0 17.7 0.00 0.25 0.05 44 1016.7
20260506194456 8 232 8.0 17.7 0.00 0.25 0.05 41 1016.7
20260506193955 8 293 6.4 22.5 0.00 0.25 0.05 45 1016.8
20260506193457 8 350 8.0 22.5 0.00 0.25 0.05 42 1016.9
20260506192956 8 213 8.0 20.9 0.00 0.28 0.05 43 1016.8
20260506192456 8 295 9.7 25.7 0.00 0.28 0.05 42 1016.9
20260506191956 8 256 8.0 25.7 0.00 0.28 0.05 47 1016.9
20260506191456 8 265 8.0 20.9 0.00 0.28 0.05 42 1017.0
20260506190957 8 294 8.0 20.9 0.00 0.28 0.05 42 1017.1
20260506190726 8 290 8.0 19.3 0.00 0.28 0.05 41 1017.1
20260506185953 8 263 8.0 19.3 0.00 0.28 0.05 41 1017.1
20260506185456 8 271 8.0 20.9 0.00 0.28 0.05 41 1017.1
20260506184956 8 296 11.3 25.7 0.00 0.28 0.05 43 1017.3
20260506184455 7 252 12.9 25.7 0.00 0.28 0.05 43 1017.5
20260506183954 7 119 14.5 27.4 0.00 0.28 0.05 43 1017.4
20260506183722 7 333 12.9 27.4 0.00 0.28 0.05 45 1017.4
20260506182949 7 279 12.9 27.4 0.00 0.28 0.05 43 1017.5
20260506182450 7 277 12.9 27.4 0.00 0.28 0.05 44 1017.6
20260506181950 7 268 9.7 25.7 0.00 0.28 0.05 45 1017.6
20260506181451 7 294 11.3 25.7 0.00 0.28 0.05 43 1017.8
20260506180951 7 54 11.3 25.7 0.00 0.28 0.05 45 1017.8
20260506180718 7 259 12.9 25.7 0.00 0.28 0.05 45 1017.8
20260506175948 7 313 9.7 25.7 0.00 0.28 0.05 45 1017.9
20260506175448 7 298 4.8 24.1 0.00 0.28 0.05 50 1017.8
20260506174947 7 216 6.4 20.9 0.00 0.28 0.05 50 1017.8
20260506174447 6 270 11.3 22.5 0.00 0.28 0.05 49 1017.9
20260506173948 7 292 9.7 22.5 0.00 0.28 0.05 48 1017.9
20260506173447 7 209 6.4 22.5 0.00 0.28 0.05 49 1017.8
20260506173217 6 286 6.4 27.4 0.00 0.28 0.05 49 1017.9
20260506172443 6 286 8.0 27.4 0.00 0.28 0.05 47 1017.9
20260506171943 6 304 8.0 20.9 0.00 0.28 0.05 50 1017.9
20260506171445 6 271 9.7 24.1 0.00 0.28 0.05 50 1018.1
20260506170942 6 282 11.3 25.7 0.00 0.28 0.05 49 1018.1
20260506170441 6 304 9.7 25.7 0.00 0.28 0.05 49 1018.1
20260506165941 6 271 8.0 17.7 0.00 0.28 0.05 51 1018.1
20260506165441 6 260 9.7 20.9 0.00 0.28 0.05 55 1018.2
20260506165208 6 0 9.7 25.7 0.00 0.28 0.05 53 1018.2
20260506164438 5 294 8.0 25.7 0.00 0.28 0.05 55 1018.2
20260506163937 5 300 6.4 14.5 0.00 0.28 0.05 55 1018.2
20260506163437 5 247 8.0 17.7 0.03 0.28 0.05 53 1018.3
20260506162938 5 296 6.4 17.7 0.03 0.28 0.05 54 1018.2
20260506162436 5 306 4.8 14.5 0.03 0.28 0.05 54 1018.2
20260506162208 5 240 4.8 14.5 0.03 0.28 0.05 55 1018.3
20260506161434 5 130 6.4 14.5 0.03 0.28 0.05 56 1018.2
20260506160935 4 321 8.0 17.7 0.03 0.28 0.05 60 1018.2
20260506160433 4 284 9.7 17.7 0.03 0.28 0.05 55 1018.2